�搅�E���B���j�^�v������
Date,Time,�搅(cps),���B(cps),���J
2024/07/14,00:00,3.3,3.7,��
2024/07/14,00:10,3.4,3.6,��
2024/07/14,00:20,3.4,3.6,��
2024/07/14,00:30,3.3,3.8,��
2024/07/14,00:40,3.4,3.7,��
2024/07/14,00:50,3.4,3.7,��
2024/07/14,01:00,3.3,3.6,��
2024/07/14,01:10,3.4,3.7,��
2024/07/14,01:20,3.4,3.7,��
2024/07/14,01:30,3.4,3.7,��
2024/07/14,01:40,3.3,3.7,��
2024/07/14,01:50,3.4,3.9,��
2024/07/14,02:00,3.3,3.7,��
2024/07/14,02:10,3.4,3.7,��
2024/07/14,02:20,3.4,3.7,��
2024/07/14,02:30,3.5,3.6,��
2024/07/14,02:40,3.4,3.7,��
2024/07/14,02:50,3.5,3.6,��
2024/07/14,03:00,3.4,3.8,��
2024/07/14,03:10,3.5,3.8,��
2024/07/14,03:20,3.5,3.7,��
2024/07/14,03:30,3.4,3.7,��
2024/07/14,03:40,3.4,3.8,��
2024/07/14,03:50,3.4,3.8,��
2024/07/14,04:00,3.4,3.7,��
2024/07/14,04:10,3.4,3.6,��
2024/07/14,04:20,3.4,3.7,��
2024/07/14,04:30,3.4,3.7,��
2024/07/14,04:40,3.3,3.7,��
2024/07/14,04:50,3.3,3.7,��
2024/07/14,05:00,3.4,3.7,��
2024/07/14,05:10,3.4,3.7,��
2024/07/14,05:20,3.3,3.6,��
2024/07/14,05:30,3.3,3.7,��
2024/07/14,05:40,3.4,3.8,��
2024/07/14,05:50,3.4,3.7,��
2024/07/14,06:00,3.4,3.6,��
2024/07/14,06:10,3.5,3.7,��
2024/07/14,06:20,3.5,3.7,��
2024/07/14,06:30,3.5,3.8,��
2024/07/14,06:40,3.3,3.7,��
2024/07/14,06:50,3.3,3.7,��
2024/07/14,07:00,3.3,3.7,��
2024/07/14,07:10,3.4,3.7,��
2024/07/14,07:20,3.4,3.6,��
2024/07/14,07:30,3.3,3.8,��
2024/07/14,07:40,3.3,3.7,��
2024/07/14,07:50,3.4,3.7,��
2024/07/14,08:00,3.5,3.7,��
2024/07/14,08:10,3.4,3.7,��
2024/07/14,08:20,3.4,3.7,��
2024/07/14,08:30,3.4,3.7,��
2024/07/14,08:40,3.4,3.7,��
2024/07/14,08:50,3.3,3.7,��
2024/07/14,09:00,3.3,3.7,��
2024/07/14,09:10,3.4,3.7,��
2024/07/14,09:20,3.3,3.6,��
2024/07/14,09:30,3.3,3.7,��
2024/07/14,09:40,3.4,3.7,��
2024/07/14,09:50,3.4,3.7,��
2024/07/14,10:00,3.5,3.7,��
2024/07/14,10:10,3.4,3.7,��
2024/07/14,10:20,3.3,3.6,��
2024/07/14,10:30,3.3,3.7,��
2024/07/14,10:40,3.3,3.7,��
2024/07/14,10:50,3.2,3.7,��
2024/07/14,11:00,3.3,3.7,��
2024/07/14,11:10,3.3,3.7,��
2024/07/14,11:20,3.3,3.6,��
2024/07/14,11:30,3.3,3.7,��
2024/07/14,11:40,3.3,3.7,��
2024/07/14,11:50,3.2,3.7,��
2024/07/14,12:00,3.3,3.7,��
2024/07/14,12:10,3.3,3.8,��
2024/07/14,12:20,3.4,3.8,��
2024/07/14,12:30,3.4,3.8,��
2024/07/14,12:40,3.4,3.8,��
2024/07/14,12:50,3.3,3.7,��
2024/07/14,13:00,3.3,3.7,��
2024/07/14,13:10,3.4,3.7,��
2024/07/14,13:20,3.4,3.7,��
2024/07/14,13:30,3.3,3.7,��
2024/07/14,13:40,3.3,3.7,�L
2024/07/14,13:50,3.4,3.7,�L
2024/07/14,14:00,3.3,3.7,��
2024/07/14,14:10,3.4,3.7,�L
2024/07/14,14:20,3.4,3.6,�L
2024/07/14,14:30,3.4,3.6,�L
2024/07/14,14:40,3.3,3.6,��
2024/07/14,14:50,3.4,3.7,��
2024/07/14,15:00,3.3,3.7,��
2024/07/14,15:10,3.3,3.6,��
2024/07/14,15:20,3.2,3.7,��
2024/07/14,15:30,3.3,3.7,�L
2024/07/14,15:40,3.4,3.7,�L
2024/07/14,15:50,3.4,3.6,�L
2024/07/14,16:00,3.4,3.7,�L
2024/07/14,16:10,3.4,3.8,�L
2024/07/14,16:20,3.4,3.7,�L
2024/07/14,16:30,3.7,3.7,�L
2024/07/14,16:40,3.8,3.9,�L
2024/07/14,16:50,3.7,4.0,�L
2024/07/14,17:00,3.7,4.0,�L
2024/07/14,17:10,3.8,3.9,�L
2024/07/14,17:20,3.8,4.0,�L
2024/07/14,17:30,3.9,4.3,�L
2024/07/14,17:40,4.0,4.3,�L
2024/07/14,17:50,3.9,4.3,�L
2024/07/14,18:00,3.9,4.4,�L
2024/07/14,18:10,4.1,4.3,�L
2024/07/14,18:20,4.3,4.3,�L
2024/07/14,18:30,4.2,4.5,�L
2024/07/14,18:40,4.2,4.4,�L
2024/07/14,18:50,4.5,4.4,�L
2024/07/14,19:00,4.9,4.4,�L
2024/07/14,19:10,5.0,4.4,�L
2024/07/14,19:20,4.7,4.5,�L
2024/07/14,19:30,4.4,4.6,�L
2024/07/14,19:40,4.2,4.6,�L
2024/07/14,19:50,3.9,4.4,�L
2024/07/14,20:00,4.0,4.3,�L
2024/07/14,20:10,4.0,4.5,�L
2024/07/14,20:20,3.9,4.5,�L
2024/07/14,20:30,3.8,4.2,�L
2024/07/14,20:40,3.8,4.2,�L
2024/07/14,20:50,3.8,4.3,��
2024/07/14,21:00,3.7,4.2,��
2024/07/14,21:10,3.5,4.0,��
2024/07/14,21:20,3.5,3.9,��
2024/07/14,21:30,3.5,3.9,�L
2024/07/14,21:40,3.4,3.9,�L
2024/07/14,21:50,3.4,3.8,�L
2024/07/14,22:00,3.2,3.8,�L
2024/07/14,22:10,3.3,3.7,�L
2024/07/14,22:20,3.4,3.7,�L
2024/07/14,22:30,3.4,3.7,�L
2024/07/14,22:40,3.3,3.7,�L
2024/07/14,22:50,3.4,3.6,�L
2024/07/14,23:00,3.4,3.7,�L
2024/07/14,23:10,3.4,3.7,�L
2024/07/14,23:20,3.3,3.8,�L
2024/07/14,23:30,3.3,3.6,�L
2024/07/14,23:40,3.4,3.6,�L
2024/07/14,23:50,3.4,3.7,�L
